This is the latest recevied weather packets stored in our database for station/object WY7EM. If no packets are shown the sender has not sent any weather packets the latest 1 day(s).
| Time | Temp. | Humidity | Pressure | Rain* | Wind** | Luminosity | Snow |
|---|---|---|---|---|---|---|---|
| 1778010176 | 20.56° C | 23% | 1008.7 hPa | 0 mm | 0.89 m/s, 183° | 879 W/m² | - |
| 1778009876 | 20° C | 24% | 1008.9 hPa | 0 mm | 0 m/s | 879 W/m² | - |
| 1778009574 | 18.89° C | 24% | 1008.9 hPa | 0 mm | 0.89 m/s, 27° | 880 W/m² | - |
| 1778009273 | 18.89° C | 24% | 1008.7 hPa | 0 mm | 1.34 m/s, 183° | 880 W/m² | - |
| 1778008970 | 19.44° C | 24% | 1008.9 hPa | 0 mm | 1.79 m/s, 180° | 877 W/m² | - |
| 1778008668 | 19.44° C | 24% | 1009.1 hPa | 0 mm | 1.79 m/s, 41° | 876 W/m² | - |
| 1778008366 | 19.44° C | 25% | 1009.1 hPa | 0 mm | 0.45 m/s, 349° | 874 W/m² | - |
| 1778008062 | 19.44° C | 25% | 1009.4 hPa | 0 mm | 2.24 m/s, 92° | 874 W/m² | - |
| 1778007757 | 18.89° C | 24% | 1009.3 hPa | 0 mm | 1.34 m/s, 82° | 870 W/m² | - |
| 1778007453 | 19.44° C | 24% | 1009.5 hPa | 0 mm | 1.34 m/s, 335° | 868 W/m² | - |
| 1778007150 | 19.44° C | 24% | 1009.3 hPa | 0 mm | 3.13 m/s, 322° | 864 W/m² | - |
| 1778006846 | 19.44° C | 24% | 1009.3 hPa | 0 mm | 0 m/s | 862 W/m² | - |
| 1778006544 | 20° C | 23% | 1009.5 hPa | 0 mm | 0.89 m/s, 211° | 857 W/m² | - |
| 1778006240 | 19.44° C | 24% | 1009.5 hPa | 0 mm | 0.89 m/s, 45° | 851 W/m² | - |
| 1778005950 | 18.33° C | 24% | 1009.7 hPa | 0 mm | 0.45 m/s, 14° | 847 W/m² | - |
| 1778005634 | 18.33° C | 25% | 1009.8 hPa | 0 mm | 0.45 m/s, 295° | 840 W/m² | - |
| 1778005331 | 18.89° C | 24% | 1009.6 hPa | 0 mm | 0 m/s | 834 W/m² | - |
| 1778005028 | 18.33° C | 26% | 1009.7 hPa | 0 mm | 0.45 m/s, 50° | 829 W/m² | - |
| 1778004726 | 18.33° C | 26% | 1009.8 hPa | 0 mm | 2.24 m/s, 81° | 797 W/m² | - |
| 1778004421 | 17.78° C | 26% | 1009.9 hPa | 0 mm | 0.89 m/s, 63° | 815 W/m² | - |
| 1778004119 | 18.33° C | 26% | 1009.8 hPa | 0 mm | 0.89 m/s, 47° | 797 W/m² | - |
| 1778003814 | 17.78° C | 27% | 1010.2 hPa | 0 mm | 1.79 m/s, 250° | 797 W/m² | - |
| 1778003511 | 17.78° C | 27% | 1009.9 hPa | 0 mm | 1.34 m/s, 327° | 788 W/m² | - |
| 1778003208 | 18.33° C | 26% | 1010.1 hPa | 0 mm | 0.89 m/s, 77° | 775 W/m² | - |
| 1778002904 | 18.33° C | 26% | 1010.1 hPa | 0 mm | 0.45 m/s, 32° | 772 W/m² | - |
* Rain latest hour (hover to see other rain measurements)
** Current wind speed in m/s (hover to see current wind gust speed)